| time (UTC) | temp C | wind direction | speed KPH | gust KPH | rain 1hr cm | rain 24hr cm | rain mn cm | humidity % | barometer mb |
| 20260503220206 | 15 | 248 | 6.4 | 12.9 | 0.00 | 0.03 | 0.00 | 29 | 1021.3 |
| 20260503215207 | 15 | 240 | 6.4 | 12.9 | 0.00 | 0.03 | 0.00 | 30 | 1021.3 |
| 20260503214707 | 15 | 224 | 4.8 | 9.7 | 0.00 | 0.03 | 0.00 | 29 | 1021.3 |
| 20260503213218 | 15 | 232 | 4.8 | 11.3 | 0.00 | 0.03 | 0.00 | 30 | 1021.3 |
| 20260503210206 | 15 | 287 | 3.2 | 8.0 | 0.00 | 0.03 | 0.00 | 30 | 1021.3 |
| 20260503205209 | 15 | 273 | 1.6 | 8.0 | 0.00 | 0.03 | 0.00 | 30 | 1021.3 |
| 20260503204706 | 15 | 269 | 3.2 | 9.7 | 0.00 | 0.03 | 0.00 | 31 | 1021.3 |
| 20260503204210 | 15 | 263 | 4.8 | 19.3 | 0.00 | 0.03 | 0.00 | 31 | 1021.3 |
| 20260503201719 | 15 | 266 | 4.8 | 16.1 | 0.00 | 0.03 | 0.00 | 31 | 1021.3 |
| 20260503200206 | 15 | 350 | 4.8 | 14.5 | 0.00 | 0.03 | 0.00 | 32 | 1021.3 |
| 20260503195706 | 15 | 269 | 3.2 | 11.3 | 0.00 | 0.03 | 0.00 | 32 | 1021.3 |
| 20260503195206 | 15 | 297 | 8.0 | 11.3 | 0.00 | 0.03 | 0.00 | 32 | 1021.3 |
| 20260503194706 | 15 | 300 | 8.0 | 19.3 | 0.00 | 0.03 | 0.00 | 32 | 1021.3 |
| 20260503194209 | 15 | 291 | 8.0 | 19.3 | 0.00 | 0.03 | 0.00 | 33 | 1021.3 |
| 20260503191715 | 14 | 302 | 4.8 | 9.7 | 0.00 | 0.03 | 0.00 | 33 | 1021.3 |
| 20260503185707 | 14 | 292 | 4.8 | 11.3 | 0.00 | 0.03 | 0.00 | 34 | 1021.3 |
| 20260503185209 | 14 | 282 | 3.2 | 11.3 | 0.00 | 0.03 | 0.00 | 34 | 1021.3 |
| 20260503184707 | 13 | 341 | 3.2 | 14.5 | 0.00 | 0.03 | 0.00 | 35 | 1021.3 |
| 20260503182220 | 14 | 251 | 3.2 | 8.0 | 0.00 | 0.03 | 0.00 | 35 | 1021.3 |
| 20260503180209 | 13 | 279 | 4.8 | 12.9 | 0.00 | 0.03 | 0.00 | 36 | 1021.3 |
| 20260503175706 | 13 | 245 | 3.2 | 12.9 | 0.00 | 0.03 | 0.00 | 37 | 1021.3 |
| 20260503175205 | 12 | 300 | 3.2 | 4.8 | 0.00 | 0.03 | 0.00 | 38 | 1021.3 |
| 20260503174207 | 12 | 235 | 4.8 | 12.9 | 0.00 | 0.03 | 0.00 | 36 | 1021.3 |
| 20260503171715 | 13 | 235 | 3.2 | 8.0 | 0.00 | 0.03 | 0.00 | 36 | 1021.3 |
| 20260503170208 | 13 | 268 | 4.8 | 11.3 | 0.00 | 0.03 | 0.00 | 36 | 1021.3 |
| 20260503160206 | 12 | 297 | 4.8 | 20.9 | 0.00 | 0.03 | 0.00 | 37 | 1021.3 |
| 20260503150207 | 12 | 236 | 3.2 | 8.0 | 0.00 | 0.03 | 0.00 | 41 | 1021.3 |
| 20260503140208 | 11 | 5 | 4.8 | 9.7 | 0.00 | 0.03 | 0.00 | 46 | 1021.3 |
| 20260503130209 | 10 | 331 | 4.8 | 9.7 | 0.00 | 0.05 | 0.00 | 52 | 1021.3 |
| 20260503120206 | 7 | 239 | 3.2 | 8.0 | 0.00 | 0.05 | 0.00 | 56 | 1021.3 |
| 20260503100206 | 7 | 237 | 1.6 | 3.2 | 0.00 | 0.05 | 0.00 | 57 | 1021.3 |
| 20260503081211 | 8 | 325 | 3.2 | 9.7 | 0.00 | 0.05 | 0.00 | 51 | 1021.3 |
| 20260503071219 | 9 | 258 | 0.0 | 4.8 | 0.00 | 0.05 | 0.00 | 54 | 1021.3 |
| 20260503070207 | 9 | 242 | 1.6 | 3.2 | 0.00 | 0.05 | 0.00 | 54 | 1021.3 |
| 20260503040209 | 10 | 308 | 1.6 | 3.2 | 0.00 | 0.05 | 0.00 | 58 | 1021.3 |
| 20260503034208 | 10 | 312 | 0.0 | 1.6 | 0.00 | 0.05 | 0.00 | 59 | 1021.3 |
| 20260503024212 | 9 | 246 | 0.0 | 0.0 | 0.00 | 0.05 | 0.00 | 64 | 1021.3 |
| 20260503022208 | 9 | 246 | 0.0 | 0.0 | 0.00 | 0.05 | 0.00 | 67 | 1021.3 |
| 20260503020206 | 9 | 246 | 0.0 | 0.0 | 0.00 | 0.05 | 0.00 | 71 | 1021.3 |
| 20260503012707 | 10 | 246 | 0.0 | 0.0 | 0.00 | 0.05 | 0.00 | 78 | 1021.3 |
| 20260503010209 | 10 | 246 | 0.0 | 4.8 | 0.00 | 0.05 | 0.00 | 77 | 1021.3 |
| 20260503003212 | 11 | 202 | 0.0 | 0.0 | 0.00 | 0.05 | 0.00 | 71 | 1021.3 |
| 20260502232712 | 13 | 200 | 1.6 | 4.8 | 0.00 | 0.05 | 0.00 | 65 | 1021.3 |
| 20260502230207 | 14 | 238 | 0.0 | 9.7 | 0.00 | 0.05 | 0.00 | 63 | 1021.3 |